EW4552 Weather Reports


Display with metric or nautical units.
time (UTC)temp
F
wind
direction
speed
MPH
gust
MPH
rain 1hr
in
rain 24hr
in
rain mn
in
humidity
%
barometer
mb
20260506230500 61 35 1.0 3.0 0.00 0.20 0.20 1 1004.6
20260506225500 61 1 1.0 2.0 0.00 0.20 0.20 1 1004.6
20260506225000 61 46 1.0 2.0 0.00 0.20 0.20 1 1004.6
20260506224500 61 13 1.0 2.0 0.00 0.20 0.20 1 1004.5
20260506223501 61 331 1.0 2.0 0.00 0.20 0.20 1 1004.6
20260506221500 61 51 2.0 3.0 0.00 0.20 0.20 1 1004.6
20260506221000 62 56 2.0 8.0 0.00 0.20 0.20 1 1004.5
20260506220501 62 178 2.0 7.0 0.00 0.20 0.20 1 1004.6
20260506215500 62 46 2.0 9.0 0.00 0.20 0.20 1 1004.5
20260506214459 62 193 2.0 6.0 0.00 0.20 0.20 1 1004.5
20260506213959 62 146 1.0 4.0 0.00 0.20 0.20 1 1004.5
20260506213459 62 314 2.0 3.0 0.00 0.20 0.20 1 1004.5
20260506212500 62 130 2.0 5.0 0.00 0.20 0.20 1 1004.6
20260506211500 62 178 2.0 9.0 0.00 0.20 0.20 1 1004.6
20260506210459 61 89 2.0 6.0 0.01 0.20 0.20 1 1004.8
20260506210004 62 81 2.0 8.0 0.01 0.20 0.20 1 1004.8
20260506205000 61 20 2.0 6.0 0.01 0.20 0.20 1 1004.9
20260506204500 61 218 2.0 8.0 0.01 0.20 0.20 1 1004.9
20260506204000 62 46 1.0 5.0 0.01 0.20 0.20 1 1004.9
20260506203501 62 100 2.0 5.0 0.01 0.20 0.20 1 1005.0
20260506203002 62 178 2.0 6.0 0.01 0.20 0.20 1 1004.9
20260506202502 62 178 1.0 7.0 0.02 0.20 0.20 1 1005.0
20260506202000 62 1 1.0 7.0 0.03 0.20 0.20 1 1005.1
20260506201500 62 63 1.0 5.0 0.03 0.20 0.20 1 1005.1
20260506201000 62 1 1.0 5.0 0.04 0.20 0.20 1 1005.2
20260506200000 62 28 1.0 2.0 0.04 0.19 0.19 1 1005.2
20260506195459 62 46 1.0 3.0 0.04 0.19 0.19 1 1005.3
20260506194959 62 324 1.0 3.0 0.04 0.19 0.19 1 1005.4
20260506194459 62 35 1.0 2.0 0.05 0.19 0.19 1 1005.5
20260506193959 62 331 1.0 2.0 0.05 0.19 0.19 1 1005.6
20260506193459 62 295 1.0 2.0 0.05 0.19 0.19 1 1005.6
20260506192959 62 1 1.0 3.0 0.06 0.19 0.19 1 1005.7
20260506192459 62 89 1.0 3.0 0.05 0.18 0.18 1 1005.8
20260506191959 62 314 1.0 3.0 0.05 0.17 0.17 1 1005.9
20260506191500 62 46 1.0 3.0 0.06 0.17 0.17 1 1005.8
20260506191000 62 1 1.0 3.0 0.05 0.16 0.16 1 1005.8
20260506190500 62 25 1.0 3.0 0.05 0.15 0.15 1 1005.8
20260506185959 62 314 1.0 4.0 0.05 0.15 0.15 1 1005.9
20260506185458 62 35 1.0 5.0 0.06 0.15 0.15 1 1005.9
20260506184959 62 331 2.0 6.0 0.07 0.15 0.15 1 1005.9
20260506184458 63 89 2.0 7.0 0.07 0.14 0.14 1 1006.1
20260506183957 63 173 1.0 4.0 0.08 0.14 0.14 1 1006.1
20260506183457 63 117 1.0 5.0 0.08 0.14 0.14 1 1006.1
20260506182959 63 295 2.0 7.0 0.08 0.13 0.13 1 1005.9
20260506182459 63 152 2.0 7.0 0.09 0.13 0.13 1 1006.5
20260506181957 63 223 2.0 9.0 0.08 0.12 0.12 1 1006.6
20260506181458 63 121 2.0 6.0 0.08 0.11 0.11 1 1006.6
20260506180958 63 1 1.0 5.0 0.09 0.11 0.11 1 1006.8
20260506180458 63 120 1.0 4.0 0.08 0.10 0.10 1 1006.8
20260506180002 63 35 1.0 3.0 0.09 0.10 0.10 1 1007.0
20260506175500 63 20 1.0 5.0 0.08 0.09 0.09 1 1007.0
20260506174459 64 1 1.0 4.0 0.07 0.07 0.07 1 1007.1
20260506173959 64 286 1.0 3.0 0.06 0.06 0.06 1 1007.1
20260506173459 64 35 1.0 3.0 0.06 0.06 0.06 1 1007.2
20260506172500 65 314 1.0 2.0 0.04 0.04 0.04 1 1007.2
20260506172000 65 1 1.0 2.0 0.04 0.04 0.04 1 1007.2
20260506171459 65 35 1.0 2.0 0.03 0.03 0.03 1 1007.1
20260506170500 65 28 1.0 2.0 0.02 0.02 0.02 1 1007.1
20260506165959 66 15 1.0 2.0 0.01 0.01 0.01 1 1007.1
20260506165458 66 1 1.0 2.0 0.01 0.01 0.01 1 1007.1
20260506164459 66 28 1.0 3.0 0.00 0.00 0.00 1 1007.2
20260506163959 66 347 1.0 3.0 0.00 0.00 0.00 1 1007.2
20260506162459 66 117 1.0 5.0 0.00 0.00 0.00 1 1007.3
20260506161959 66 193 2.0 6.0 0.00 0.00 0.00 1 1007.4
20260506161459 66 178 2.0 6.0 0.00 0.00 0.00 1 1007.4
20260506160959 66 135 2.0 7.0 0.00 0.00 0.00 21 1007.4
20260506160459 66 295 2.0 7.0 0.00 0.00 0.00 21 1007.5
20260506155958 66 147 2.0 5.0 0.00 0.00 0.00 13 1007.5
20260506155458 66 113 2.0 4.0 0.00 0.00 0.00 4 1007.6
20260506154958 66 197 2.0 8.0 0.00 0.00 0.00 8 1007.7
20260506154458 66 143 2.0 8.0 0.00 0.00 0.00 6 1007.8
20260506153959 66 46 1.0 5.0 0.00 0.00 0.00 1 1008.0
20260506152959 66 336 2.0 7.0 0.00 0.00 0.00 3 1008.5
20260506151959 66 340 2.0 6.0 0.00 0.00 0.00 18 1008.4
20260506151459 66 165 2.0 6.0 0.00 0.00 0.00 11 1008.4
20260506150459 65 135 2.0 6.0 0.00 0.00 0.00 1 1008.4
20260506145959 65 143 2.0 5.0 0.00 0.00 0.00 10 1008.2
20260506145459 65 178 2.0 6.0 0.00 0.00 0.00 1 1008.3
20260506144959 65 11 2.0 6.0 0.00 0.00 0.00 1 1008.2
20260506143959 64 1 1.0 5.0 0.00 0.00 0.00 1 1008.0
20260506142959 64 1 2.0 5.0 0.00 0.00 0.00 1 1008.1
20260506141959 63 149 2.0 5.0 0.00 0.00 0.00 1 1008.2
20260506141459 63 269 2.0 7.0 0.00 0.00 0.00 1 1008.2
20260506140959 62 126 1.0 5.0 0.00 0.00 0.00 1 1008.3
20260506140459 62 314 1.0 4.0 0.00 0.00 0.00 1 1008.4
20260506140000 61 1 2.0 5.0 0.00 0.00 0.00 1 1008.3
20260506135458 61 293 2.0 5.0 0.00 0.00 0.00 1 1008.4
20260506134958 61 168 2.0 6.0 0.00 0.00 0.00 1 1008.4
20260506133959 60 126 1.0 2.0 0.00 0.00 0.00 1 1008.3
20260506133458 60 46 1.0 3.0 0.00 0.00 0.00 1 1008.4
20260506132958 59 135 1.0 3.0 0.00 0.00 0.00 1 1008.5
20260506132459 59 89 1.0 2.0 0.00 0.00 0.00 1 1008.6
20260506131957 59 56 1.0 2.0 0.00 0.00 0.00 1 1008.8
20260506130958 58 1 1.0 2.0 0.00 0.00 0.00 1 1009.1
20260506130458 58 269 1.0 3.0 0.00 0.00 0.00 1 1009.1
20260506125959 58 314 1.0 3.0 0.00 0.00 0.00 1 1009.0
20260506125458 57 314 1.0 2.0 0.00 0.00 0.00 1 1008.8
20260506124958 57 314 1.0 4.0 0.00 0.00 0.00 1 1008.7
20260506124457 56 46 1.0 4.0 0.00 0.00 0.00 1 1008.7
20260506123958 56 89 1.0 2.0 0.00 0.00 0.00 1 1008.8
20260506123458 56 89 1.0 2.0 0.00 0.00 0.00 1 1008.8
20260506122957 55 327 1.0 2.0 0.00 0.00 0.00 1 1008.7
20260506122458 55 28 1.0 2.0 0.00 0.00 0.00 1 1008.6
20260506121958 55 178 1.0 2.0 0.00 0.00 0.00 1 1008.6
20260506121458 54 295 1.0 2.0 0.00 0.00 0.00 1 1008.9
20260506120957 54 223 1.0 2.0 0.00 0.00 0.00 1 1009.0
20260506120458 54 314 1.0 2.0 0.00 0.00 0.00 1 1009.1
20260506115959 53 314 1.0 2.0 0.00 0.00 0.00 1 1009.0
20260506115458 53 241 1.0 2.0 0.00 0.00 0.00 1 1009.1
20260506114957 53 223 0.0 2.0 0.00 0.00 0.00 1 1009.1
20260506114458 53 223 0.0 2.0 0.00 0.00 0.00 1 1009.1
20260506113957 52 89 1.0 2.0 0.00 0.00 0.00 1 1009.2
20260506113457 52 269 1.0 2.0 0.00 0.00 0.00 1 1009.2
20260506112959 52 197 1.0 2.0 0.00 0.00 0.00 1 1009.2
20260506111957 51 46 0.0 1.0 0.00 0.00 0.00 1 1009.5
20260506111457 51 28 0.0 1.0 0.00 0.00 0.00 1 1009.2
20260506110458 51 89 0.0 1.0 0.00 0.00 0.00 1 1009.2
20260506110000 51 28 1.0 2.0 0.00 0.00 0.00 1 1009.2
20260506105458 51 250 1.0 2.0 0.00 0.00 0.00 1 1009.2
20260506104959 51 253 1.0 2.0 0.00 0.00 0.00 1 1009.3
20260506104458 51 269 1.0 2.0 0.00 0.00 0.00 1 1009.3
20260506103958 51 296 1.0 2.0 0.00 0.00 0.00 1 1009.3
20260506103457 51 178 0.0 2.0 0.00 0.00 0.00 1 1009.4
20260506102958 51 178 0.0 2.0 0.00 0.00 0.00 1 1009.4
20260506102458 51 331 0.0 2.0 0.00 0.00 0.00 1 1009.3
20260506101957 51 314 0.0 1.0 0.00 0.00 0.00 1 1009.2
20260506101458 51 1 0.0 1.0 0.00 0.00 0.00 1 1009.4
20260506100000 51 1 0.0 2.0 0.00 0.00 0.00 1 1009.2
20260506095458 51 250 0.0 1.0 0.00 0.00 0.00 1 1009.2
20260506094000 52 314 0.0 2.0 0.00 0.00 0.00 1 1009.1
20260506093458 52 241 0.0 2.0 0.00 0.00 0.00 1 1009.0
20260506092958 52 1 1.0 1.0 0.00 0.00 0.00 1 1008.9
20260506090958 52 253 0.0 2.0 0.00 0.00 0.00 1 1008.9
20260506090458 52 1 1.0 2.0 0.00 0.00 0.00 1 1008.9
20260506085958 53 197 0.0 2.0 0.00 0.00 0.00 1 1009.0
20260506085458 53 231 0.0 1.0 0.00 0.00 0.00 1 1009.1
20260506084959 53 314 0.0 1.0 0.00 0.00 0.00 1 1009.1
20260506084458 53 46 0.0 1.0 0.00 0.00 0.00 1 1009.0
20260506083958 53 178 0.0 2.0 0.00 0.00 0.00 1 1009.1
20260506082957 53 35 0.0 2.0 0.00 0.00 0.00 1 1009.2
20260506082459 54 135 0.0 1.0 0.00 0.00 0.00 1 1009.3
20260506081958 54 46 0.0 1.0 0.00 0.00 0.00 1 1009.4
20260506081458 54 241 0.0 1.0 0.00 0.00 0.00 1 1009.3
20260506080958 54 46 0.0 1.0 0.00 0.00 0.00 1 1009.3
20260506080458 54 89 0.0 2.0 0.00 0.00 0.00 1 1009.3
20260506073458 55 178 0.0 2.0 0.00 0.00 0.00 1 1009.2
20260506072958 56 223 0.0 2.0 0.00 0.00 0.00 1 1009.2
20260506071957 56 269 0.0 2.0 0.00 0.00 0.00 1 1009.2
20260506071458 56 269 0.0 2.0 0.00 0.00 0.00 1 1009.2
20260506070958 56 295 0.0 2.0 0.00 0.00 0.00 1 1009.3
20260506062457 58 223 0.0 1.0 0.00 0.00 0.00 1 1008.9
20260506061958 58 46 0.0 1.0 0.00 0.00 0.00 1 1008.9
20260506061457 58 269 0.0 1.0 0.00 0.00 0.00 1 1008.9
20260506060957 58 46 0.0 1.0 0.00 0.00 0.00 1 1008.9
20260506060458 58 223 0.0 2.0 0.00 0.00 0.00 1 1008.8
20260506050957 58 46 0.0 2.0 0.00 0.00 0.00 1 1009.1
20260506050456 58 314 1.0 2.0 0.00 0.00 0.00 1 1009.0
20260506044959 58 324 1.0 3.0 0.00 0.00 0.00 1 1008.9
20260506044459 58 89 1.0 3.0 0.00 0.00 0.00 1 1008.9
20260506044001 59 35 0.0 2.0 0.00 0.00 0.00 1 1009.0
20260506043459 59 1 0.0 2.0 0.00 0.00 0.00 1 1009.0
20260506042958 59 213 1.0 2.0 0.00 0.00 0.00 1 1008.9
20260506042459 59 28 0.0 2.0 0.00 0.00 0.00 1 1008.8
20260506041959 59 28 0.0 2.0 0.00 0.00 0.00 1 1008.7
20260506041459 59 46 1.0 2.0 0.00 0.00 0.00 1 1008.7
20260506040458 59 28 0.0 2.0 0.00 0.00 0.00 1 1008.8
20260506040006 59 234 1.0 2.0 0.00 0.00 0.00 1 1008.8
20260506035000 59 269 0.0 3.0 0.00 0.00 0.00 1 1008.9
20260506034501 59 63 0.0 3.0 0.00 0.00 0.00 1 1008.8
20260506033001 59 314 0.0 2.0 0.00 0.00 0.00 1 1008.9
20260506032500 59 223 0.0 1.0 0.00 0.00 0.00 1 1008.7
20260506031500 59 201 0.0 2.0 0.00 0.00 0.00 1 1008.7
20260506031000 59 314 0.0 2.0 0.00 0.00 0.00 1 1008.8
20260506030500 60 314 0.0 2.0 0.00 0.00 0.00 1 1008.8
20260506030004 60 206 0.0 2.0 0.00 0.00 0.00 1 1008.8
20260506025501 60 135 0.0 2.0 0.00 0.00 0.00 1 1008.8
20260506025002 60 324 0.0 2.0 0.00 0.00 0.00 1 1009.0
20260506024500 60 331 0.0 2.0 0.00 0.00 0.00 1 1008.9
20260506024000 60 190 0.0 2.0 0.00 0.00 0.00 3 1008.9
20260506023501 60 1 0.0 1.0 0.00 0.00 0.00 1 1009.0
20260506023000 60 46 0.0 1.0 0.00 0.00 0.00 1 1008.8
20260506022501 61 269 0.0 1.0 0.00 0.00 0.00 4 1008.6
20260506021500 61 35 0.0 2.0 0.00 0.00 0.00 4 1008.7
20260506015500 62 269 0.0 2.0 0.00 0.00 0.00 1 1008.8
20260506014959 62 161 0.0 2.0 0.00 0.00 0.00 2 1008.7
20260506014459 62 269 0.0 1.0 0.00 0.00 0.00 3 1008.6
20260506013500 62 241 1.0 2.0 0.00 0.00 0.00 5 1008.4
20260506012959 62 135 0.0 2.0 0.00 0.00 0.00 8 1008.5
20260506012500 62 46 1.0 2.0 0.00 0.00 0.00 5 1008.5
20260506011959 63 1 1.0 2.0 0.00 0.00 0.00 10 1008.5
20260506011500 63 231 0.0 2.0 0.00 0.00 0.00 12 1008.4
20260506011000 63 46 1.0 2.0 0.00 0.00 0.00 10 1008.5
20260506010459 63 314 1.0 3.0 0.00 0.00 0.00 12 1008.5
20260506010010 63 216 1.0 3.0 0.00 0.00 0.00 13 1008.5
20260506005501 63 20 1.0 2.0 0.00 0.00 0.00 11 1008.5
20260506003001 64 269 0.0 1.0 0.00 0.00 0.00 21 1008.3
20260506002500 64 331 0.0 1.0 0.00 0.00 0.00 24 1008.1
20260506002000 64 269 0.0 1.0 0.00 0.00 0.00 23 1008.1
20260506001500 65 1 0.0 1.0 0.00 0.00 0.00 24 1007.9
20260506001001 65 1 0.0 2.0 0.00 0.00 0.00 27 1008.0
20260506000002 65 178 1.0 2.0 0.00 0.00 0.00 23 1008.0
20260505235500 65 46 0.0 2.0 0.00 0.00 0.00 27 1007.9
20260505235000 66 46 0.0 2.0 0.00 0.00 0.00 27 1007.9
20260505234500 66 314 1.0 2.0 0.00 0.00 0.00 27 1007.9
20260505234001 66 28 1.0 2.0 0.00 0.00 0.00 28 1007.8
20260505233501 66 35 1.0 2.0 0.00 0.00 0.00 28 1007.6
20260505233001 66 63 1.0 2.0 0.00 0.00 0.00 36 1007.6
20260505232500 66 223 1.0 3.0 0.00 0.00 0.00 36 1007.5
20260505231500 67 269 1.0 2.0 0.00 0.00 0.00 34 1007.4